• In Netherlands
  • List of Countries
  • For 7 days
  • Water Temperature
  • Satellite Maps
  • Weather Map
  • Weather Widgets
  • user-avatar
    Login

    Hourly Weather Lozenec

    Today, 26 July, Wednesday

    Time Temperature Precipitation Wind Pressure Humidity
    00:00 +23°C° 0 mm 4 mps 750 mmHg 78%
    01:00 +22°C° 0 mm 3 mps 750 mmHg 81%
    02:00 +22°C° 0 mm 3 mps 750 mmHg 85%
    03:00 +22°C° 0 mm 3 mps 750 mmHg 86%
    04:00 +21°C° 0 mm 3 mps 750 mmHg 87%
    05:00 +21°C° 0 mm 4 mps 750 mmHg 87%
    06:00 +23°C° 0 mm 4 mps 750 mmHg 78%
    07:00 +26°C° 0 mm 4 mps 750 mmHg 69%
    08:00 +28°C° 0 mm 4 mps 750 mmHg 59%
    09:00 +30°C° 0 mm 4 mps 750 mmHg 54%
    10:00 +32°C° 0 mm 4 mps 750 mmHg 49%
    11:00 +34°C° 0 mm 4 mps 750 mmHg 44%
    12:00 +34°C° 0 mm 4 mps 750 mmHg 43%
    13:00 +35°C° 0 mm 4 mps 750 mmHg 41%
    14:00 +36°C° 0 mm 4 mps 749 mmHg 40%
    15:00 +35°C° 0 mm 4 mps 749 mmHg 43%
    16:00 +34°C° 0 mm 4 mps 749 mmHg 47%
    17:00 +33°C° 0 mm 4 mps 748 mmHg 50%
    18:00 +30°C° 0 mm 3 mps 749 mmHg 59%
    19:00 +28°C° 0 mm 3 mps 749 mmHg 68%
    20:00 +25°C° 0 mm 2 mps 749 mmHg 77%
    21:00 +25°C° 0 mm 2 mps 749 mmHg 78%
    22:00 +25°C° 0 mm 2 mps 749 mmHg 79%
    23:00 +24°C° 0 mm 2 mps 749 mmHg 79%

    Tomorrow, 27 July, Thursday

    Time Temperature Precipitation Wind Pressure Humidity
    00:00 +24°C° 0 mm 1 mps 749 mmHg 78%
    01:00 +24°C° 0 mm 1 mps 749 mmHg 77%
    02:00 +24°C° 0 mm 1 mps 749 mmHg 76%
    03:00 +24°C° 0 mm 1 mps 749 mmHg 78%
    04:00 +23°C° 0 mm 1 mps 749 mmHg 79%
    05:00 +23°C° 0 mm 1 mps 749 mmHg 81%
    06:00 +25°C° 0 mm 2 mps 749 mmHg 74%
    07:00 +27°C° 0 mm 2 mps 749 mmHg 68%
    08:00 +29°C° 0 mm 3 mps 749 mmHg 61%
    09:00 +30°C° 0.2 mm 3 mps 749 mmHg 58%
    10:00 +31°C° 0.2 mm 3 mps 750 mmHg 56%
    11:00 +33°C° 0.2 mm 3 mps 750 mmHg 54%
    12:00 +33°C° 0.4 mm 3 mps 749 mmHg 54%
    13:00 +33°C° 0.4 mm 3 mps 749 mmHg 54%
    14:00 +33°C° 0.4 mm 3 mps 749 mmHg 54%
    15:00 +31°C° 0.6 mm 3 mps 749 mmHg 56%
    16:00 +31°C° 0.6 mm 3 mps 749 mmHg 58%
    17:00 +30°C° 0.6 mm 3 mps 749 mmHg 60%
    18:00 +28°C° 0.6 mm 4 mps 749 mmHg 66%
    19:00 +27°C° 0.6 mm 5 mps 750 mmHg 71%
    20:00 +24°C° 0.6 mm 6 mps 750 mmHg 76%
    21:00 +23°C° 0.3 mm 6 mps 750 mmHg 78%
    22:00 +22°C° 0.3 mm 6 mps 750 mmHg 80%
    23:00 +21°C° 0.3 mm 6 mps 751 mmHg 81%

    Day after tomorrow, 28 July, Friday

    Time Temperature Precipitation Wind Pressure Humidity
    00:00 +21°C° 0.5 mm 6 mps 751 mmHg 81%
    01:00 +21°C° 0.5 mm 6 mps 751 mmHg 82%
    02:00 +20°C° 0.5 mm 5 mps 751 mmHg 82%
    03:00 +20°C° 0.3 mm 5 mps 752 mmHg 81%
    04:00 +20°C° 0.3 mm 6 mps 752 mmHg 80%
    05:00 +20°C° 0.3 mm 6 mps 752 mmHg 79%
    06:00 +21°C° 0 mm 6 mps 752 mmHg 73%
    07:00 +22°C° 0 mm 6 mps 753 mmHg 67%
    08:00 +23°C° 0 mm 7 mps 753 mmHg 61%
    09:00 +26°C° 0 mm 6 mps 754 mmHg 55%
    10:00 +28°C° 0 mm 6 mps 754 mmHg 48%
    11:00 +30°C° 0 mm 5 mps 754 mmHg 42%
    12:00 +32°C° 0 mm 5 mps 754 mmHg 40%
    13:00 +33°C° 0 mm 4 mps 754 mmHg 38%
    14:00 +33°C° 0 mm 3 mps 754 mmHg 36%
    15:00 +33°C° 0 mm 3 mps 754 mmHg 38%
    16:00 +31°C° 0 mm 3 mps 755 mmHg 39%
    17:00 +31°C° 0 mm 2 mps 755 mmHg 41%
    18:00 +29°C° 0 mm 2 mps 755 mmHg 46%
    19:00 +28°C° 0 mm 2 mps 756 mmHg 50%
    20:00 +26°C° 0 mm 2 mps 756 mmHg 55%
    21:00 +25°C° 0 mm 2 mps 757 mmHg 59%
    22:00 +25°C° 0 mm 3 mps 757 mmHg 62%
    23:00 +24°C° 0 mm 3 mps 757 mmHg 66%

    29 July, Saturday

    Time Temperature Precipitation Wind Pressure Humidity
    00:00 +22°C° 0 mm 3 mps 757 mmHg 67%
    01:00 +22°C° 0 mm 3 mps 758 mmHg 67%
    02:00 +23°C° 0 mm 2 mps 758 mmHg 68%
    03:00 +21°C° 0 mm 2 mps 758 mmHg 67%
    04:00 +21°C° 0 mm 2 mps 758 mmHg 66%
    05:00 +21°C° 0 mm 2 mps 758 mmHg 65%
    06:00 +24°C° 0 mm 2 mps 759 mmHg 59%
    07:00 +26°C° 0 mm 2 mps 759 mmHg 53%
    08:00 +28°C° 0 mm 2 mps 760 mmHg 47%
    09:00 +30°C° 0 mm 2 mps 760 mmHg 43%
    10:00 +32°C° 0 mm 2 mps 760 mmHg 38%
    11:00 +34°C° 0 mm 2 mps 760 mmHg 34%
    12:00 +35°C° 0 mm 2 mps 760 mmHg 32%
    13:00 +35°C° 0 mm 3 mps 760 mmHg 30%
    14:00 +36°C° 0 mm 3 mps 760 mmHg 28%
    15:00 +36°C° 0 mm 3 mps 760 mmHg 31%
    16:00 +35°C° 0 mm 4 mps 760 mmHg 33%
    17:00 +34°C° 0 mm 4 mps 760 mmHg 36%
    18:00 +32°C° 0 mm 4 mps 760 mmHg 44%
    19:00 +28°C° 0 mm 3 mps 761 mmHg 52%
    20:00 +25°C° 0 mm 3 mps 761 mmHg 60%
    21:00 +25°C° 0 mm 2 mps 761 mmHg 62%
    22:00 +24°C° 0 mm 2 mps 761 mmHg 64%
    23:00 +24°C° 0 mm 1 mps 762 mmHg 66%

    30 July, Sunday

    Time Temperature Precipitation Wind Pressure Humidity
    00:00 +23°C° 0 mm 1 mps 762 mmHg 67%
    01:00 +23°C° 0 mm 1 mps 762 mmHg 68%
    02:00 +23°C° 0 mm 1 mps 762 mmHg 70%
    03:00 +22°C° 0 mm 1 mps 762 mmHg 72%
    04:00 +21°C° 0 mm 2 mps 761 mmHg 75%
    05:00 +21°C° 0 mm 2 mps 761 mmHg 78%
    06:00 +24°C° 0 mm 2 mps 762 mmHg 71%
    07:00 +26°C° 0 mm 3 mps 762 mmHg 64%
    08:00 +28°C° 0 mm 3 mps 762 mmHg 57%
    09:00 +29°C° 0 mm 4 mps 762 mmHg 51%
    10:00 +30°C° 0 mm 5 mps 762 mmHg 45%
    11:00 +33°C° 0 mm 5 mps 762 mmHg 40%
    12:00 +33°C° 0 mm 6 mps 761 mmHg 40%
    13:00 +33°C° 0 mm 6 mps 761 mmHg 39%
    14:00 +33°C° 0 mm 6 mps 761 mmHg 39%
    15:00 +32°C° 0 mm 6 mps 761 mmHg 43%
    16:00 +30°C° 0 mm 6 mps 760 mmHg 46%
    17:00 +30°C° 0 mm 6 mps 760 mmHg 49%
    18:00 +28°C° 0 mm 6 mps 761 mmHg 59%
    19:00 +26°C° 0 mm 5 mps 761 mmHg 69%
    20:00 +23°C° 0 mm 5 mps 761 mmHg 78%
    21:00 +23°C° 0 mm 4 mps 761 mmHg 81%
    22:00 +22°C° 0 mm 4 mps 761 mmHg 84%
    23:00 +22°C° 0 mm 4 mps 761 mmHg 87%

    31 July, Monday

    Time Temperature Precipitation Wind Pressure Humidity
    00:00 +22°C° 0 mm 4 mps 760 mmHg 87%
    01:00 +22°C° 0 mm 4 mps 760 mmHg 88%
    02:00 +21°C° 0 mm 4 mps 760 mmHg 89%
    03:00 +21°C° 0 mm 5 mps 760 mmHg 89%
    04:00 +21°C° 0 mm 5 mps 760 mmHg 90%
    05:00 +21°C° 0 mm 5 mps 760 mmHg 91%
    06:00 +23°C° 0 mm 5 mps 760 mmHg 82%
    07:00 +26°C° 0 mm 6 mps 760 mmHg 74%
    08:00 +27°C° 0 mm 6 mps 760 mmHg 65%
    09:00 +29°C° 0 mm 7 mps 760 mmHg 60%
    10:00 +30°C° 0 mm 7 mps 760 mmHg 54%
    11:00 +32°C° 0 mm 7 mps 760 mmHg 49%
    12:00 +32°C° 0 mm 7 mps 760 mmHg 48%
    13:00 +32°C° 0 mm 8 mps 760 mmHg 46%
    14:00 +33°C° 0 mm 8 mps 760 mmHg 45%
    15:00 +32°C° 0 mm 7 mps 760 mmHg 48%
    16:00 +30°C° 0 mm 7 mps 760 mmHg 50%
    17:00 +29°C° 0 mm 7 mps 760 mmHg 53%
    18:00 +28°C° 0 mm 7 mps 760 mmHg 61%
    19:00 +26°C° 0 mm 6 mps 760 mmHg 70%
    20:00 +24°C° 0 mm 6 mps 760 mmHg 78%
    21:00 +23°C° 0 mm 6 mps 760 mmHg 81%
    22:00 +23°C° 0 mm 5 mps 760 mmHg 83%
    23:00 +23°C° 0 mm 5 mps 761 mmHg 85%
    Show more